Temp
16 21 22 20 20 18 18 17 17 17 16 17 17 17 17 18 18 19 19 19 17 17 18 19 19 19 19 20 16 13 14 13 12 12 12 11 11 11 11 11 10 11 11 11 11 11 11 11 11 11 11 11 11 11 10 10 10 9 10 10 10 10 10 10 11 11 11 12 12 13 13 13 13 13 13 13 13 13 14 14 13 13 13 12 13 13
17 21 21 19 17 16 16 15 15 16 16 16 17 17 18 18 18 19 19 18 17 17 17 19 19 18 19 18 14 13 13 12 12 12 11 11 11 11 11 10 10 10 10 11 11 11 11 11 11 11 11 10 10 10 10 10 9 9 9 9 9 9 9 10 9 9 9 10 11 12 12 12 12 12 12 13 13 13 13 13 14 14 13 12 12 13
20 21 19 17 15 13 14 14 14 15 16 17 17 17 18 18 17 18 18 18 17 16 17 19 17 18 19 16 13 13 13 12 12 11 11 11 10 10 10 10 10 10 10 10 10 11 11 11 11 10 10 10 10 10 10 9 9 9 9 9 8 8 9 9 9 8 9 9 9 10 11 12 12 12 12 12 13 13 14 13 13 14 13 12 12 12
20 20 16 14 13 14 15 14 14 16 17 17 17 17 18 17 16 16 17 17 17 17 17 17 17 18 18 14 12 12 12 12 12 12 11 11 10 10 10 10 9 9 9 10 10 11 11 11 11 10 10 10 10 10 9 9 9 9 9 9 8 8 8 8 8 8 8 8 8 9 10 11 12 12 12 12 12 13 13 13 13 13 13 13 12 12
20 18 13 13 13 14 16 16 16 17 18 17 16 16 16 15 15 15 16 16 17 17 15 16 17 17 18 15 13 12 12 12 12 12 12 11 11 10 10 10 9 9 10 10 10 10 11 11 10 10 10 10 10 10 9 9 9 9 9 9 8 8 8 8 8 8 8 8 8 8 9 10 11 11 12 11 12 12 12 13 13 13 13 12 12 12
18 14 11 14 15 15 16 17 16 16 18 18 15 14 14 14 14 15 15 15 16 17 15 15 15 16 18 17 14 13 13 12 12 12 11 11 11 10 10 10 10 10 10 10 10 10 11 11 10 10 10 10 10 10 9 9 9 9 9 9 8 8 8 8 8 7 7 7 7 7 8 9 10 11 11 11 12 12 12 12 12 13 13 12 12 12
16 13 12 15 15 15 16 16 15 15 17 17 14 12 12 13 14 14 15 15 15 16 16 15 14 14 17 16 14 13 13 12 12 12 11 11 10 10 10 10 10 10 10 10 10 10 11 11 10 10 10 10 10 9 9 9 9 9 9 8 8 8 8 8 8 7 7 7 7 7 7 8 8 9 10 11 11 12 12 12 12 12 13 12 12 12
14 13 14 14 15 15 16 16 14 14 16 16 13 12 12 14 14 14 15 14 15 16 15 15 14 14 15 16 15 14 13 12 12 11 11 11 10 10 10 10 10 10 10 10 10 10 10 10 10 10 10 10 9 9 9 9 9 9 9 8 8 8 9 8 8 7 7 7 7 6 6 7 7 8 8 9 10 11 11 12 12 12 12 12 12 12
13 14 15 14 14 15 15 15 12 12 15 15 12 11 12 13 14 14 14 15 15 14 14 15 15 13 14 16 16 14 13 12 11 11 11 10 10 10 10 10 10 10 10 10 10 10 10 10 10 10 10 10 9 9 9 9 9 9 9 8 8 8 9 9 8 8 7 7 7 6 6 6 6 6 7 8 9 9 10 11 12 12 12 12 12 12
13 13 13 13 14 15 14 12 11 12 14 13 12 12 13 14 14 14 14 15 14 13 13 14 15 13 14 15 16 14 12 11 11 11 11 10 10 10 10 10 10 10 10 10 10 10 10 10 10 10 9 9 9 9 9 9 9 9 9 9 8 8 8 9 8 8 8 7 7 7 6 6 6 6 6 6 7 8 9 10 11 12 12 12 11 11
12 11 11 12 12 13 12 11 10 11 12 12 12 13 14 14 15 15 14 14 12 12 13 14 14 12 12 13 14 12 11 10 10 10 10 10 10 10 10 10 10 10 10 10 10 10 10 10 9 9 9 9 9 9 9 9 9 9 8 8 9 8 8 8 8 8 7 7 7 6 6 6 6 6 5 5 6 7 8 9 10 11 12 11 11 11
12 11 12 11 10 11 12 11 10 10 11 12 14 14 14 14 14 14 13 12 11 12 14 13 13 12 11 13 12 11 11 11 10 10 10 10 10 10 10 10 10 9 9 9 9 9 9 9 9 9 9 9 9 9 9 8 8 8 8 8 8 8 8 8 8 8 8 7 7 6 6 5 6 6 5 5 5 5 6 7 8 9 11 12 11 11
13 12 11 10 10 10 12 13 12 12 13 14 14 14 13 13 13 12 13 13 12 13 13 13 12 11 12 14 12 11 11 11 11 10 10 9 9 10 9 9 9 9 9 9 9 9 9 9 9 9 9 9 9 9 8 8 8 8 8 8 8 8 8 8 8 8 8 7 7 6 6 5 6 6 6 5 5 5 5 5 5 7 9 11 11 11
14 11 10 11 12 10 11 14 14 14 14 13 13 12 12 12 11 11 12 12 12 13 13 13 11 10 12 13 12 11 11 11 11 10 10 10 9 9 9 9 9 9 9 9 8 8 8 8 8 8 8 8 8 8 8 8 8 8 7 7 8 7 8 8 8 8 8 8 7 6 6 5 5 6 6 6 5 5 5 4 4 5 6 8 10 11
14 14 12 12 12 11 11 13 13 13 13 12 12 12 12 12 11 11 11 11 11 11 11 11 10 10 12 12 11 11 11 11 11 10 10 10 9 9 9 9 9 8 8 8 8 8 8 8 8 8 8 8 8 7 7 7 7 7 7 7 7 7 7 7 8 8 8 8 7 6 6 5 5 5 6 6 5 5 5 4 4 4 4 5 8 10
13 14 11 9 9 10 11 10 10 12 12 11 11 11 11 12 12 11 10 9 8 8 9 10 10 12 13 12 11 11 11 11 10 10 10 9 9 9 8 8 8 8 8 8 8 7 7 8 8 8 8 8 8 7 7 7 6 6 7 7 7 7 7 7 7 7 8 8 7 6 6 5 5 5 5 5 5 5 5 4 3 4 4 4 6 9
13 13 10 8 9 10 10 10 9 11 12 11 10 11 11 10 11 10 9 8 7 7 9 10 11 13 13 11 10 10 10 10 10 9 9 8 8 8 8 8 8 7 7 7 7 7 7 8 8 8 7 7 7 7 6 6 6 6 6 6 7 6 6 7 7 7 7 7 7 6 6 5 5 5 5 5 5 5 5 4 3 3 4 4 5 7
13 12 10 9 11 9 8 9 10 9 11 11 11 11 10 9 9 8 7 7 8 8 9 11 10 11 12 11 10 10 10 9 9 8 8 8 8 8 7 7 7 7 7 7 7 7 7 8 7 7 7 7 6 6 5 5 5 5 6 6 6 6 6 6 6 7 7 7 7 6 6 5 5 5 5 5 4 4 4 4 4 3 3 4 4 5
11 12 11 8 10 9 7 9 11 9 9 10 10 11 10 9 9 8 6 6 7 7 8 9 10 10 11 10 9 9 9 8 8 8 7 7 7 7 7 7 7 7 6 7 7 7 7 7 7 7 6 6 5 5 5 5 5 5 5 5 5 5 6 6 6 6 7 6 6 6 6 5 5 5 5 5 4 4 4 4 4 3 3 3 3 4
10 12 12 8 9 9 9 10 11 10 9 9 9 10 10 9 9 8 7 7 7 7 7 8 8 9 10 10 8 8 9 8 7 7 7 7 7 7 7 6 6 6 6 6 7 7 6 7 6 6 5 5 5 4 4 4 3 3 3 2 2 3 4 5 5 6 6 6 6 6 5 5 5 5 5 5 4 4 3 4 4 3 3 2 2 4
10 11 11 9 8 9 10 11 11 11 10 9 9 9 8 8 8 7 7 7 6 6 7 6 7 9 9 9 9 8 8 8 7 7 7 6 7 7 6 6 6 6 6 6 7 6 6 6 6 5 5 4 3 3 3 2 1 1 0 0 1 1 2 3 3 4 5 5 5 5 5 5 5 5 5 4 4 4 4 4 4 3 3 2 2 3
10 11 11 10 9 10 11 9 8 10 10 10 10 10 9 8 7 6 6 6 5 5 6 6 6 8 9 9 9 8 8 8 7 7 6 6 6 6 6 6 6 6 6 6 6 5 5 5 5 4 4 3 2 1 0 -1 -1 -2 -1 -1 -1 -1 0 1 1 2 3 4 5 5 5 5 5 5 4 4 4 4 4 4 4 3 2 2 2 2
8 9 9 10 10 9 8 6 6 7 9 9 10 9 9 7 6 6 6 6 5 5 6 5 5 7 8 9 9 8 8 8 7 7 6 6 6 6 6 6 6 6 6 5 5 5 5 5 4 3 2 1 -0 -1 -2 -3 -3 -3 -3 -3 -3 -3 -2 -2 -1 -0 1 2 3 4 5 5 5 5 4 4 4 4 4 4 4 3 2 2 2 2
7 8 8 9 10 8 6 6 7 7 8 9 8 8 8 7 7 6 6 6 5 4 5 4 4 6 8 8 8 8 8 7 7 7 6 6 6 6 6 6 6 6 5 5 5 4 4 4 4 2 0 -1 -1 -2 -3 -3 -4 -4 -4 -5 -5 -5 -5 -4 -4 -2 -0 1 2 3 4 4 4 4 4 4 4 4 5 5 4 3 2 2 1 1
8 9 9 9 9 8 7 7 7 7 7 8 8 7 7 7 6 6 6 5 3 3 4 4 3 6 9 9 8 8 7 7 7 6 6 6 5 5 6 5 5 5 4 4 4 4 3 3 3 1 -1 -2 -2 -3 -4 -4 -5 -5 -5 -6 -6 -6 -6 -6 -5 -4 -2 -1 -1 1 2 3 3 4 4 4 4 4 5 5 4 3 2 2 1 1
8 9 9 9 9 9 9 9 8 7 7 7 7 7 6 6 5 4 4 4 3 4 5 4 4 7 8 8 8 7 7 6 6 6 6 5 5 5 5 5 4 4 3 3 3 3 2 1 1 -0 -2 -3 -3 -4 -5 -5 -6 -6 -6 -7 -7 -7 -7 -7 -7 -6 -4 -4 -3 -2 -0 1 2 3 4 4 4 4 4 5 4 3 2 2 1 1
6 7 8 9 10 10 10 9 8 7 7 7 6 6 5 5 5 4 4 3 3 4 4 4 5 5 6 7 7 7 6 6 5 5 5 5 5 5 5 4 3 3 3 3 3 2 1 -0 -1 -1 -2 -3 -4 -5 -6 -6 -6 -7 -7 -7 -7 -7 -7 -7 -7 -6 -6 -5 -5 -4 -3 -1 0 2 3 4 4 4 4 4 4 3 3 2 1 1
5 5 7 8 8 9 9 8 7 6 6 6 5 5 6 5 4 3 3 3 4 3 3 5 6 5 5 6 6 6 6 5 5 5 5 5 5 4 4 3 2 2 2 2 2 1 -0 -1 -2 -2 -3 -4 -5 -6 -7 -7 -8 -8 -8 -8 -8 -8 -8 -7 -7 -7 -7 -6 -6 -6 -5 -4 -2 -1 0 2 3 3 3 4 4 3 3 2 1 1
6 5 6 6 6 7 7 7 6 6 5 5 5 5 6 5 4 3 2 3 4 3 3 5 5 5 5 6 6 6 5 5 5 5 5 4 4 3 2 2 2 2 2 1 0 -1 -1 -2 -3 -3 -4 -5 -6 -7 -8 -8 -9 -9 -9 -9 -9 -8 -8 -8 -7 -7 -7 -7 -6 -6 -6 -6 -5 -4 -3 -1 1 2 2 3 3 3 3 2 1 1
5 5 5 5 5 5 5 6 6 5 5 5 5 5 5 5 5 4 3 4 4 3 4 5 4 4 5 6 6 5 5 5 5 5 4 4 3 2 1 1 1 1 1 -0 -1 -2 -2 -3 -3 -4 -5 -6 -7 -8 -9 -9 -9 -10 -9 -9 -9 -8 -8 -8 -7 -7 -7 -7 -6 -6 -6 -6 -6 -5 -5 -3 -2 -0 1 1 2 2 2 2 1 1
5 5 4 4 4 4 5 5 5 4 4 4 4 5 5 4 4 4 4 4 4 4 4 5 4 4 6 6 6 5 5 5 4 4 3 2 2 1 1 1 1 0 -1 -2 -2 -3 -3 -4 -4 -5 -6 -7 -8 -9 -9 -10 -10 -10 -10 -10 -10 -9 -9 -8 -8 -7 -7 -7 -6 -6 -6 -6 -6 -6 -6 -5 -4 -2 -1 -0 1 1 2 2 1 1
5 4 3 3 3 4 4 4 3 4 3 3 3 3 4 4 4 5 5 5 4 4 4 4 4 4 6 6 5 4 4 4 3 2 2 1 1 1 1 1 -0 -1 -2 -3 -3 -4 -4 -5 -5 -6 -7 -8 -9 -9 -10 -10 -11 -11 -11 -11 -10 -10 -9 -9 -8 -8 -7 -7 -6 -6 -6 -6 -6 -6 -6 -6 -5 -4 -3 -1 -0 1 1 1 1 1
5 4 3 3 3 3 3 3 3 3 2 2 3 4 4 5 5 5 5 5 5 5 4 3 4 5 5 5 4 3 3 3 2 1 1 1 1 1 1 -0 -1 -2 -3 -3 -4 -4 -5 -6 -6 -7 -8 -8 -9 -10 -11 -11 -11 -11 -11 -11 -11 -10 -10 -9 -9 -8 -8 -7 -7 -6 -6 -6 -6 -6 -6 -6 -6 -4 -3 -2 -1 -0 1 1 1 1
3 3 3 4 3 3 2 2 2 1 1 3 5 6 5 5 5 5 5 5 5 5 5 5 5 5 5 4 3 3 3 2 1 1 1 1 1 1 0 -1 -2 -3 -4 -4 -4 -5 -6 -6 -7 -8 -8 -9 -10 -11 -11 -11 -11 -11 -11 -11 -11 -11 -10 -10 -10 -9 -8 -8 -7 -7 -6 -6 -6 -6 -6 -7 -6 -5 -3 -2 -1 -0 1 1 1 1
3 3 3 3 3 2 1 1 1 2 3 4 5 5 5 5 5 5 5 5 5 5 5 5 5 4 4 4 3 2 2 2 1 0 0 1 1 0 -1 -2 -3 -4 -4 -5 -5 -6 -6 -6 -7 -8 -9 -10 -10 -11 -11 -11 -11 -12 -12 -12 -11 -11 -11 -11 -10 -9 -9 -8 -7 -7 -7 -6 -6 -6 -6 -6 -6 -4 -3 -2 -1 -0 1 1 1 1
3 2 2 2 2 1 1 2 2 3 4 4 5 5 5 4 5 4 4 5 5 5 5 4 4 4 4 3 3 2 1 0 -0 -0 1 1 1 -0 -2 -3 -4 -4 -5 -5 -6 -7 -7 -7 -8 -9 -10 -10 -11 -11 -11 -12 -12 -12 -12 -12 -12 -11 -11 -11 -11 -10 -9 -8 -8 -7 -7 -6 -6 -6 -6 -6 -6 -4 -3 -2 -1 0 1 1 1 1
3 2 2 2 2 1 1 2 3 3 3 5 5 5 5 5 5 5 3 4 5 5 4 4 3 3 3 2 2 1 -0 -1 -1 1 2 1 0 -1 -2 -3 -4 -5 -5 -5 -6 -7 -8 -8 -9 -10 -11 -11 -11 -11 -12 -12 -12 -12 -12 -12 -12 -12 -12 -11 -11 -11 -10 -9 -8 -7 -7 -7 -6 -6 -6 -6 -5 -4 -3 -1 -0 0 1 1 1 2
3 2 2 2 2 2 1 1 2 2 3 5 6 6 5 5 5 4 3 3 4 4 4 3 3 2 2 1 0 -1 -1 -2 -1 1 2 1 -1 -2 -3 -4 -4 -5 -6 -6 -7 -8 -8 -9 -10 -11 -11 -11 -12 -12 -12 -12 -12 -12 -12 -12 -12 -12 -12 -12 -11 -11 -11 -10 -10 -9 -7 -7 -7 -6 -6 -6 -5 -4 -3 -1 -0 1 1 1 2 2
2 2 2 2 1 1 1 1 1 1 3 5 6 5 5 4 4 4 2 2 4 4 3 2 2 2 1 -0 -1 -2 -2 -2 -1 0 1 -1 -2 -3 -4 -5 -5 -5 -6 -7 -8 -8 -9 -10 -10 -11 -12 -12 -12 -12 -12 -12 -12 -13 -13 -13 -13 -12 -12 -12 -12 -12 -12 -12 -11 -11 -9 -8 -7 -7 -6 -6 -5 -4 -3 -1 0 1 2 2 2 2
1 1 1 1 0 1 1 1 2 2 4 5 6 5 4 4 4 2 1 3 4 3 2 2 1 1 0 -1 -2 -2 -2 -2 -2 -1 -1 -2 -4 -4 -5 -5 -6 -6 -7 -8 -9 -9 -9 -10 -11 -12 -12 -12 -12 -12 -12 -12 -13 -13 -13 -13 -13 -13 -13 -13 -13 -13 -13 -13 -12 -12 -11 -9 -8 -7 -6 -6 -5 -4 -2 -1 1 1 2 2 2 2
0 0 1 0 1 1 1 0 1 2 4 5 5 5 4 3 3 1 2 3 4 3 2 1 0 0 -1 -2 -2 -2 -2 -1 -2 -2 -3 -4 -5 -5 -5 -6 -7 -8 -8 -9 -9 -10 -10 -11 -11 -12 -13 -13 -13 -13 -13 -13 -13 -13 -13 -14 -14 -14 -14 -14 -14 -14 -14 -13 -13 -13 -12 -10 -9 -7 -6 -6 -5 -4 -2 -0 1 1 2 2 2 2
-0 -0 -0 0 1 1 1 1 0 1 4 5 5 4 4 2 2 3 4 3 3 2 1 -0 -0 -0 -2 -3 -3 -3 -3 -3 -4 -4 -4 -5 -6 -6 -7 -7 -8 -9 -9 -10 -10 -11 -11 -12 -12 -13 -13 -13 -13 -13 -13 -13 -14 -14 -14 -14 -14 -15 -15 -15 -15 -15 -14 -14 -14 -13 -12 -11 -9 -7 -6 -5 -4 -3 -2 -0 1 1 1 1 2 2
1 0 -0 1 1 1 1 0 -1 1 4 5 4 3 3 3 3 4 4 3 2 1 0 -0 -0 -1 -3 -4 -4 -4 -4 -5 -5 -5 -6 -7 -7 -8 -8 -8 -9 -9 -10 -11 -11 -12 -13 -13 -13 -13 -14 -14 -14 -14 -14 -14 -14 -14 -15 -15 -15 -15 -15 -15 -15 -15 -15 -14 -14 -13 -12 -11 -9 -7 -5 -4 -3 -3 -2 -0 0 1 1 1 1 2
3 1 1 2 2 1 -0 0 1 3 5 5 4 4 4 5 5 4 3 3 2 0 -1 -1 -1 -2 -4 -5 -5 -6 -6 -6 -6 -6 -7 -8 -9 -9 -9 -10 -10 -11 -11 -12 -12 -13 -14 -14 -14 -14 -14 -14 -14 -14 -14 -14 -15 -15 -15 -15 -16 -16 -16 -16 -16 -16 -15 -15 -14 -13 -12 -10 -9 -6 -4 -4 -3 -2 -1 -0 0 1 1 1 2 2
3 3 3 3 3 2 2 3 4 5 5 5 5 5 5 5 4 3 2 2 2 -0 -2 -2 -2 -4 -6 -7 -7 -7 -7 -7 -7 -8 -9 -10 -10 -10 -11 -11 -11 -12 -12 -13 -14 -14 -15 -15 -15 -15 -15 -15 -15 -15 -15 -15 -16 -16 -16 -16 -16 -16 -16 -16 -16 -16 -15 -15 -14 -12 -11 -10 -9 -6 -4 -3 -2 -1 -0 0 1 1 1 2 2 2
4 4 4 3 4 4 4 5 5 5 4 4 4 4 3 3 1 1 1 1 0 -2 -3 -4 -4 -5 -7 -8 -9 -9 -8 -8 -9 -9 -10 -11 -12 -12 -12 -12 -13 -13 -14 -15 -15 -15 -16 -16 -16 -16 -16 -16 -16 -15 -15 -16 -16 -17 -17 -17 -17 -17 -17 -17 -16 -16 -15 -14 -13 -12 -11 -10 -8 -6 -3 -2 -2 -1 -0 1 1 1 2 2 2 2
4 4 3 3 4 4 4 5 5 5 4 4 4 2 1 0 -1 -2 -1 -0 -2 -3 -5 -6 -6 -7 -9 -10 -10 -10 -9 -9 -10 -11 -12 -13 -13 -13 -13 -13 -14 -14 -15 -16 -16 -16 -17 -16 -16 -16 -16 -16 -16 -16 -16 -16 -17 -17 -17 -17 -17 -17 -17 -17 -16 -16 -15 -14 -13 -12 -10 -9 -7 -5 -3 -2 -1 -1 -0 1 1 1 2 2 2 2
4 4 3 3 4 4 4 5 6 5 4 4 3 2 1 -0 -2 -3 -3 -3 -5 -6 -7 -8 -9 -9 -10 -10 -10 -10 -11 -11 -12 -13 -13 -14 -14 -14 -14 -14 -15 -16 -16 -17 -17 -17 -17 -17 -17 -17 -17 -17 -17 -16 -16 -17 -17 -18 -18 -18 -18 -18 -18 -17 -17 -16 -14 -13 -12 -11 -9 -8 -6 -5 -3 -2 -1 0 0 1 1 2 2 2 2 3
4 4 3 3 3 4 4 5 5 4 3 3 3 2 2 0 -2 -4 -5 -6 -7 -8 -9 -9 -9 -10 -10 -11 -11 -12 -13 -14 -14 -14 -15 -15 -15 -15 -15 -16 -16 -17 -17 -17 -17 -18 -18 -18 -18 -18 -18 -17 -17 -17 -17 -18 -18 -18 -18 -18 -19 -18 -18 -17 -16 -15 -14 -12 -11 -9 -8 -7 -6 -4 -3 -2 -1 0 1 1 1 2 2 2 3 3
3 3 4 3 2 3 4 5 5 3 3 3 3 2 1 -1 -3 -4 -6 -7 -8 -9 -9 -10 -11 -11 -11 -12 -13 -14 -15 -15 -15 -15 -15 -16 -16 -16 -17 -17 -17 -18 -18 -18 -18 -18 -18 -18 -18 -18 -18 -18 -18 -18 -18 -19 -19 -19 -19 -19 -19 -19 -18 -18 -16 -14 -13 -12 -11 -9 -8 -7 -5 -4 -3 -2 -1 -0 0 1 1 2 2 2 2 3
3 4 4 3 3 3 4 5 5 4 4 4 4 1 -2 -4 -4 -5 -6 -7 -8 -9 -10 -11 -12 -12 -13 -13 -14 -15 -16 -15 -15 -16 -16 -17 -17 -17 -18 -18 -18 -18 -18 -18 -19 -19 -19 -19 -19 -19 -19 -18 -18 -18 -19 -19 -19 -19 -19 -20 -20 -19 -19 -18 -16 -14 -14 -13 -12 -11 -10 -8 -6 -4 -3 -2 -2 -1 0 1 1 2 2 2 2 2
Height
815 809 809 812 815 819 820 823 822 821 822 822 821 821 817 812 807 801 797 796 800 801 796 796 799 798 792 788 798 806 804 807 811 812 815 816 816 817 815 814 813 811 811 809 807 805 802 798 796 792 788 785 782 778 775 771 768 765 761 757 753 749 745 741 738 734 731 727 722 718 715 712 710 708 707 706 706 706 707 707 708 708 709 709 711 712
814 811 814 817 821 825 825 826 826 824 824 822 821 818 812 810 806 800 798 798 799 802 797 790 795 797 789 790 801 805 804 809 812 814 816 816 817 817 816 816 814 812 811 808 805 803 800 797 794 791 788 785 781 778 775 771 768 765 762 759 754 750 747 743 740 736 732 729 725 719 714 711 708 706 705 703 702 701 702 702 702 703 705 706 708 709
814 812 818 822 827 831 830 830 829 825 823 820 818 816 812 809 806 800 798 799 801 803 796 790 797 797 788 795 806 804 806 812 813 814 816 815 816 816 816 815 813 811 809 805 802 800 798 796 793 791 788 785 782 779 776 773 769 765 762 759 755 751 748 744 740 736 732 729 726 721 714 710 706 704 702 701 699 697 697 697 698 699 700 702 704 706
818 814 822 828 831 830 828 830 828 823 818 818 818 817 814 813 814 810 803 802 802 801 798 796 799 794 789 799 808 808 809 812 813 813 812 813 814 815 816 814 812 809 806 802 800 798 796 795 793 791 788 785 782 779 776 772 769 766 763 759 755 751 747 744 740 736 732 728 724 720 714 708 705 701 700 698 696 695 693 693 693 694 695 697 698 700
818 819 828 829 829 828 824 824 823 820 815 816 823 822 819 820 822 818 810 805 799 799 804 802 796 790 788 796 804 808 808 809 809 809 809 810 812 814 813 812 810 807 805 802 800 798 796 794 791 789 787 785 782 779 775 771 768 765 762 759 754 750 746 742 739 735 731 727 723 719 713 706 702 699 698 697 694 692 691 689 688 689 691 692 693 695
818 826 832 826 826 827 824 820 821 824 818 815 824 828 827 825 823 819 814 810 804 801 805 806 806 796 785 789 799 804 805 806 808 807 808 810 811 812 810 809 808 805 804 802 800 799 796 794 791 788 786 784 780 777 773 769 767 764 761 758 754 749 744 740 737 734 730 727 724 721 715 708 703 699 697 696 694 690 688 685 684 685 686 688 689 691
824 831 832 825 825 827 825 821 823 826 821 818 825 831 831 826 823 819 816 817 813 806 802 808 817 804 786 788 797 801 804 805 806 807 808 810 810 810 809 807 804 802 800 799 798 797 795 792 789 787 785 783 780 775 772 768 765 762 759 756 753 748 743 738 735 732 729 726 724 721 717 712 706 700 696 695 693 689 686 683 682 682 682 683 684 686
827 829 829 827 827 827 823 820 825 828 823 821 827 832 830 825 822 819 818 819 813 808 805 806 813 808 793 789 792 796 800 801 804 806 806 808 809 809 807 805 802 800 799 798 797 795 793 791 788 785 783 780 778 773 770 767 763 760 757 753 750 746 742 737 733 731 728 726 723 720 717 712 707 702 697 693 691 688 685 682 680 679 678 678 679 682
828 826 827 828 828 827 823 824 830 831 824 822 829 833 829 824 823 821 819 814 809 814 814 804 806 809 796 785 786 793 799 802 805 807 807 808 809 808 805 803 801 800 800 799 797 794 792 790 787 784 781 777 775 771 768 765 761 758 754 751 747 744 740 735 731 729 727 725 722 718 714 710 706 702 697 693 689 686 683 680 677 676 675 674 675 677
828 828 829 829 827 825 826 831 834 831 826 827 831 830 825 822 820 818 817 813 815 822 817 805 804 809 799 785 786 794 803 809 809 807 809 809 809 807 804 802 801 800 800 798 796 793 790 788 785 782 778 775 771 768 765 762 759 756 751 748 744 741 737 733 729 726 724 722 719 715 711 706 703 700 697 693 689 685 682 678 675 673 672 672 672 673
831 833 832 830 830 829 830 835 836 834 832 830 829 824 820 818 815 814 813 816 824 819 808 806 808 814 811 794 791 801 807 812 810 807 808 808 806 805 803 802 802 801 799 797 794 791 789 785 782 778 775 771 768 765 762 759 756 752 748 744 740 737 734 730 726 723 720 718 715 712 708 704 700 699 697 694 690 685 682 678 674 672 670 669 669 670
830 831 830 831 834 832 830 832 835 836 833 828 824 822 822 820 817 816 815 821 828 816 805 808 810 817 815 798 797 807 808 808 808 808 808 807 806 804 803 802 801 801 798 795 792 788 785 782 778 775 772 768 765 761 758 755 752 748 745 740 736 733 729 726 723 719 716 713 711 708 705 701 698 696 696 694 691 687 683 678 674 671 668 665 664 666
825 830 833 833 834 833 829 826 828 829 828 825 823 827 832 826 822 820 815 815 814 805 803 808 812 817 805 790 796 805 805 806 806 806 808 809 808 806 805 804 801 800 797 793 790 787 784 779 774 771 768 765 761 758 755 751 748 744 740 736 732 729 725 722 718 715 712 708 706 704 701 698 695 693 692 691 689 686 683 678 674 671 667 662 660 660
823 832 837 832 829 834 830 823 822 822 824 826 827 833 835 833 836 831 817 811 807 802 803 808 821 822 799 787 797 802 803 805 804 806 810 810 810 808 806 804 801 799 796 792 789 786 782 778 773 770 766 763 759 755 751 748 744 740 735 731 728 724 721 718 714 710 707 704 701 699 697 695 692 689 689 687 685 683 680 677 673 669 667 663 659 656
822 822 827 828 827 831 830 826 826 825 827 830 831 836 836 834 840 835 823 821 821 817 813 816 825 816 793 789 798 801 803 803 804 808 810 810 809 808 806 803 801 798 794 790 787 784 782 777 772 767 763 760 756 752 748 744 741 736 731 726 722 719 716 713 710 706 702 699 696 694 692 691 689 687 685 684 682 680 677 673 670 666 663 662 659 655
827 817 825 836 834 832 831 833 835 829 829 837 839 839 837 832 831 832 834 839 845 842 826 817 812 795 786 794 799 801 803 802 805 807 808 809 808 806 805 802 799 796 791 788 784 781 779 775 770 766 760 755 750 747 743 739 737 733 727 721 717 714 711 708 705 701 697 695 692 689 687 686 686 684 682 680 678 676 673 670 667 663 660 659 657 655
825 821 833 841 836 835 834 834 837 831 827 836 841 837 836 838 836 839 844 846 855 854 824 803 799 787 786 798 800 801 802 801 806 808 807 809 806 804 802 798 796 793 788 785 782 778 774 770 767 763 757 752 747 743 739 735 732 728 723 717 712 708 706 702 699 696 692 690 687 684 682 681 680 679 678 676 674 672 669 666 664 660 657 656 654 652
823 824 833 838 833 837 842 837 837 838 833 832 834 833 838 845 845 851 862 856 849 843 816 798 803 797 790 797 800 801 803 804 805 806 806 806 804 801 798 796 794 790 786 783 779 775 771 765 762 757 752 748 745 741 736 732 728 723 718 713 708 703 700 697 694 691 688 685 682 679 676 675 674 673 672 671 669 668 665 663 660 657 655 653 651 649
832 824 828 839 836 837 845 838 833 839 840 836 834 834 838 845 845 852 869 866 852 846 827 805 803 799 790 795 804 804 804 806 806 806 806 804 802 800 796 794 792 789 785 780 775 773 769 763 758 753 749 744 740 737 732 728 723 718 714 710 705 701 697 693 690 687 684 681 678 674 671 669 668 667 667 666 664 663 661 659 657 654 652 650 649 647
837 826 826 839 841 839 841 837 832 834 840 843 841 839 840 843 845 848 857 860 856 853 840 820 809 799 792 798 808 807 805 808 809 807 806 804 802 800 796 794 791 787 784 778 773 770 766 761 754 749 747 743 737 732 727 723 719 715 712 708 704 701 696 691 687 683 680 677 673 670 666 664 663 661 661 660 660 658 656 655 653 651 649 647 646 645
837 830 827 835 844 840 831 830 829 827 834 841 839 840 844 845 847 853 855 855 858 854 846 839 821 799 795 803 805 805 807 810 811 809 807 805 802 800 797 794 790 786 782 776 771 768 763 758 752 746 743 740 735 729 725 722 718 713 709 706 702 698 695 690 686 682 678 673 670 666 662 659 658 656 655 654 654 653 651 649 647 646 645 643 642 641
835 832 830 835 839 833 827 834 837 832 833 835 831 833 840 845 851 858 855 853 860 858 848 847 831 803 798 804 802 805 809 809 810 810 807 804 801 798 795 792 788 784 780 775 770 765 760 755 750 745 740 736 732 728 724 721 717 711 707 703 699 695 692 689 685 681 677 671 666 662 659 656 653 651 650 649 648 647 645 643 641 641 641 639 638 637
840 839 836 832 831 833 838 844 845 840 835 833 833 833 837 845 851 857 855 849 855 854 844 847 839 811 799 803 803 805 807 807 809 808 805 803 800 797 794 790 787 782 778 773 766 761 756 752 748 744 740 736 732 728 724 719 715 711 706 702 699 694 690 687 683 679 675 669 663 659 655 652 649 647 645 644 643 642 640 638 636 636 636 635 633 632
843 842 839 831 827 837 847 845 841 841 837 834 837 838 841 843 844 849 849 848 855 854 847 852 845 814 799 802 803 804 806 807 808 807 806 804 800 797 793 787 784 780 774 769 762 757 752 748 744 743 740 735 730 727 723 718 713 709 705 702 698 694 690 686 681 676 671 666 660 656 652 648 645 643 641 639 638 636 635 633 632 631 631 630 629 628
835 832 834 833 827 831 839 839 840 842 839 836 835 838 841 841 845 851 850 855 863 854 846 853 843 809 794 798 800 803 807 808 808 808 807 805 800 795 790 785 781 777 771 765 759 754 749 744 740 741 740 734 728 724 720 715 711 707 704 701 696 692 689 685 680 674 669 664 659 654 650 645 642 639 636 635 633 632 630 629 628 627 626 625 624 623
834 829 828 829 826 823 820 821 829 835 835 836 836 839 843 843 849 855 856 862 861 846 840 845 831 803 793 797 801 804 807 807 807 807 805 803 799 792 787 784 780 775 769 764 760 755 750 744 740 738 738 733 728 724 719 714 710 705 701 698 694 690 686 682 678 673 668 663 659 654 649 644 640 636 632 630 629 627 626 624 623 622 621 620 618 617
840 838 829 822 818 814 810 813 826 833 834 835 837 839 842 845 848 851 858 860 851 843 840 830 817 810 805 803 803 804 806 808 807 805 803 800 795 789 787 784 780 775 769 763 760 756 751 745 739 736 733 730 727 723 719 714 708 703 699 695 692 688 683 680 676 671 667 662 657 653 649 644 639 634 630 627 624 623 621 619 618 617 616 615 614 613
843 843 833 826 822 816 814 820 829 834 834 835 838 837 836 842 848 852 856 850 841 846 840 816 810 817 811 803 804 804 806 808 806 804 801 796 792 789 787 785 779 772 767 762 759 756 751 745 738 732 729 727 724 721 718 713 708 703 697 692 689 685 681 677 673 669 665 660 656 652 648 644 639 634 629 625 622 619 617 614 612 611 611 610 610 610
842 840 833 833 833 826 826 829 830 833 834 833 836 834 831 837 844 850 851 843 840 845 833 813 813 817 808 804 804 803 806 808 806 803 798 794 792 790 787 783 775 768 765 762 758 755 751 745 738 732 727 724 721 718 715 712 707 702 696 691 686 682 678 675 670 665 661 657 653 649 646 642 638 633 629 625 621 617 613 610 607 606 606 605 606 605
841 839 836 838 840 836 835 834 832 833 835 834 834 831 828 832 834 837 839 835 834 834 823 816 818 813 805 804 803 803 806 806 805 803 798 794 793 790 786 780 772 767 765 762 758 755 750 744 737 731 726 723 720 716 713 708 704 700 694 689 684 679 676 672 667 662 658 653 650 646 642 639 635 631 627 623 619 615 611 607 604 602 601 601 601 601
840 839 840 844 846 842 837 835 835 835 836 837 835 827 825 829 829 828 830 829 829 826 817 815 816 808 802 802 802 803 805 804 804 802 799 796 792 788 784 777 772 770 768 764 760 755 749 742 735 730 726 723 719 715 711 706 701 697 692 687 682 677 673 669 664 659 654 649 645 642 638 634 630 627 622 619 616 612 609 606 602 600 598 597 597 596
839 842 846 848 848 840 835 840 840 837 839 842 838 828 823 825 824 820 820 821 822 821 816 815 815 806 799 800 802 802 802 801 801 800 798 795 790 786 781 777 774 773 771 767 762 756 749 741 734 729 724 721 717 713 709 704 698 693 689 684 679 675 670 666 661 655 650 645 641 637 634 630 626 622 618 614 611 607 605 603 600 598 596 593 592 591
839 843 847 849 847 840 839 845 845 846 849 842 827 817 814 815 815 812 813 814 814 814 815 815 810 801 798 801 803 800 798 798 798 797 796 793 788 784 781 778 776 774 772 769 763 757 751 743 736 731 726 721 716 711 707 702 696 690 686 681 676 672 667 662 657 651 644 639 636 632 628 625 621 617 613 609 606 603 601 599 597 594 591 589 588 586
842 844 845 844 844 845 848 851 850 851 845 824 806 804 807 809 810 810 810 809 807 807 807 806 801 799 802 804 804 801 798 797 798 796 793 791 788 784 782 780 776 772 770 767 762 757 750 743 737 731 726 722 716 710 705 700 694 687 683 678 673 669 664 658 652 645 638 633 629 626 622 619 614 611 607 604 601 597 595 593 591 589 586 584 583 581
843 846 846 843 845 850 853 855 852 838 821 809 805 806 807 808 808 809 807 804 803 804 802 801 800 801 803 803 803 803 799 797 798 794 789 787 785 783 783 781 776 771 765 761 759 755 748 742 736 729 723 719 714 708 702 696 690 684 678 674 669 664 659 653 646 639 633 627 623 619 615 611 608 604 601 598 595 591 588 586 584 582 581 579 578 577
839 844 845 846 850 851 849 846 836 820 809 807 806 803 805 808 807 808 806 800 798 800 799 800 801 800 801 802 802 802 799 797 795 789 783 781 781 781 782 780 776 772 765 759 757 754 749 742 736 731 724 717 712 706 698 692 686 679 672 668 665 659 654 648 641 635 629 623 617 613 609 605 602 598 596 593 590 585 582 579 577 576 575 574 573 572
835 841 844 847 847 846 845 835 821 816 813 806 800 798 801 802 801 804 806 799 793 796 798 799 801 800 799 800 801 802 801 796 789 780 775 776 776 776 777 776 774 772 766 759 756 753 750 745 738 731 724 717 710 704 696 689 683 676 669 663 659 654 648 643 636 630 624 618 612 607 603 600 596 593 590 588 584 580 576 573 571 570 570 570 569 567
834 836 840 844 839 838 846 841 829 827 817 798 793 796 796 798 800 803 808 802 792 793 797 799 800 799 799 800 801 802 801 795 784 773 769 772 772 771 772 771 770 768 764 758 753 748 745 741 736 730 723 715 708 701 695 688 681 674 667 660 655 649 643 638 631 625 620 614 609 604 598 595 591 588 585 582 578 575 571 569 567 566 566 566 564 562
838 836 835 841 839 836 842 838 828 823 810 791 789 794 798 802 802 804 811 803 790 791 796 798 798 797 798 801 802 802 802 797 785 772 769 772 773 772 771 770 768 767 763 757 753 748 743 737 732 727 721 714 705 698 692 685 678 672 665 658 653 647 640 634 627 621 616 610 605 600 594 590 586 583 580 576 572 570 567 564 563 562 562 562 560 558
839 838 837 841 838 834 837 833 821 811 801 790 790 796 801 801 802 812 816 799 786 791 795 795 796 796 797 800 802 801 800 796 786 776 773 776 776 773 772 771 769 766 762 756 752 748 742 735 730 723 718 712 703 695 690 683 676 670 663 656 650 644 638 631 624 618 613 606 600 595 590 585 581 577 574 571 568 565 563 560 559 558 558 558 557 555
836 836 835 835 832 829 831 830 822 809 796 789 790 795 799 803 807 814 807 788 783 791 792 792 795 795 796 800 801 797 792 789 786 781 777 778 777 773 771 770 767 765 762 758 754 749 743 736 729 723 717 711 703 695 688 681 673 667 661 654 648 642 635 629 622 615 608 601 595 590 585 580 575 571 568 566 564 562 558 556 555 555 555 555 554 553
830 833 832 828 828 826 821 824 827 814 790 782 788 792 797 804 803 794 784 780 785 788 788 791 793 791 794 797 796 793 788 785 785 782 779 780 778 773 771 768 764 761 757 753 749 746 741 734 726 720 713 707 700 694 687 680 672 665 659 652 646 639 632 625 618 610 603 597 590 584 579 574 569 566 563 561 559 558 555 553 552 553 553 553 551 550
811 823 825 815 814 820 821 827 834 815 783 775 786 792 795 796 788 778 777 782 786 786 788 790 789 790 794 794 791 790 787 784 784 782 780 780 778 775 772 769 764 760 755 751 746 742 739 732 724 717 709 702 697 691 685 679 671 664 658 651 643 636 629 621 614 606 599 592 585 578 573 567 563 561 559 557 556 554 552 550 550 551 550 549 548 547
797 806 808 799 800 813 818 815 810 793 773 772 779 780 780 779 775 775 779 780 782 785 788 789 788 790 793 792 791 790 786 784 783 781 780 779 777 774 772 767 764 760 754 751 746 742 739 732 723 714 706 699 695 689 683 678 671 664 657 649 640 633 625 617 610 602 595 587 580 574 568 562 559 557 554 553 552 551 550 549 548 548 547 546 545 544
785 784 786 784 785 792 792 785 779 773 771 772 771 769 771 773 774 778 779 777 780 785 787 788 788 789 792 793 793 791 787 785 783 782 782 780 777 775 772 767 764 760 754 750 746 741 738 732 725 716 705 697 693 687 681 677 671 663 654 646 639 632 623 613 605 598 591 583 576 570 564 559 556 553 550 549 548 547 547 546 545 545 544 543 543 542
774 775 779 780 779 777 774 771 770 771 771 772 771 771 773 775 777 779 779 778 780 784 786 789 789 789 793 794 793 791 788 786 784 783 783 781 777 775 772 768 763 759 754 749 745 741 737 731 724 717 706 696 690 685 679 674 669 662 653 645 638 630 621 612 604 594 587 579 573 567 562 557 553 549 546 545 544 544 543 542 542 541 541 541 541 540
772 775 778 779 777 775 772 766 764 767 768 770 772 774 775 777 779 779 779 780 782 785 788 789 790 792 794 794 793 791 788 787 787 785 783 782 778 774 771 768 763 759 754 748 744 740 735 728 721 714 704 695 687 681 675 670 666 661 653 644 636 628 619 611 602 592 583 576 570 565 559 554 550 546 543 541 540 540 539 538 538 538 537 537 538 537
769 772 777 778 773 770 767 762 759 763 767 768 770 772 773 776 778 779 781 782 784 787 789 790 791 793 792 792 792 791 790 789 789 787 784 782 779 774 771 768 763 759 755 749 744 740 735 729 722 714 706 696 687 680 675 668 663 658 652 645 636 626 617 608 600 591 582 573 567 562 558 553 549 544 541 539 537 536 536 534 534 534 533 533 534 534
765 768 771 772 770 767 765 760 759 763 767 766 766 767 768 771 775 779 782 784 785 787 789 790 791 791 791 791 792 792 792 791 790 789 786 782 778 775 772 768 764 760 754 749 744 740 736 730 723 715 707 698 689 682 676 669 662 656 652 645 635 625 616 607 598 590 581 573 567 561 556 552 548 544 540 537 534 532 531 530 530 529 529 529 530 530
764 765 764 768 770 768 761 755 755 761 763 759 759 762 765 769 773 778 781 784 785 786 788 789 790 791 791 791 792 793 793 791 789 789 786 781 779 776 772 768 764 759 754 750 744 740 735 730 724 716 707 699 691 685 677 670 662 656 651 644 635 627 618 608 598 589 582 576 570 564 558 552 547 542 539 536 532 530 527 525 525 525 525 525 526 527
755 755 756 760 761 755 749 747 751 756 755 752 755 761 766 769 773 776 779 781 783 784 786 788 790 790 791 791 791 792 792 789 788 787 784 781 778 775 772 769 764 759 754 750 745 740 735 729 723 716 708 699 692 686 679 672 665 658 652 645 637 629 621 611 602 593 586 580 574 568 562 555 548 542 538 534 530 528 525 522 521 521 521 521 522 523
Wind_Speed
2 4 2 2 4 7 6 3 4 5 4 6 7 6 8 10 8 9 11 5 9 12 8 8 11 9 12 10 11 15 14 14 12 12 11 10 10 10 12 13 15 15 15 19 23 25 26 26 26 26 25 27 30 29 28 27 27 27 26 26 27 29 30 30 30 31 31 29 26 24 23 24 28 30 33 35 39 39 40 43 42 41 39 36 39 41
2 4 2 1 3 4 4 3 4 4 4 4 5 7 8 8 8 10 9 5 9 10 9 14 14 8 11 7 13 14 13 13 11 12 11 11 11 10 12 14 15 14 14 18 21 24 27 28 27 27 26 27 29 30 30 29 30 29 25 25 26 28 30 29 29 31 32 32 31 29 28 28 29 29 29 32 38 39 38 43 46 46 39 33 36 36
3 2 2 2 2 1 1 0 3 4 5 5 4 6 7 6 9 8 3 5 10 8 11 15 12 9 8 7 14 12 12 12 10 11 10 11 12 12 13 14 14 15 15 17 19 23 27 28 28 27 26 26 26 26 27 28 29 29 26 25 25 26 28 28 30 31 31 34 36 33 31 30 29 30 31 31 35 39 40 40 40 45 44 37 36 33
4 2 3 2 2 2 0 1 2 5 4 3 4 6 6 7 9 5 2 9 12 8 9 13 10 8 1 10 12 10 11 10 8 10 10 11 12 12 12 11 13 15 16 17 19 21 25 26 26 26 25 26 25 24 24 26 26 26 26 28 27 25 24 26 29 31 32 36 39 37 32 30 28 29 32 33 34 35 38 39 37 40 42 40 38 33
6 3 3 3 3 1 3 1 1 4 5 2 1 3 6 7 8 8 10 15 13 6 4 10 11 3 4 4 6 8 8 8 7 9 12 12 11 11 11 11 13 14 15 17 19 19 22 25 26 27 28 27 26 24 24 25 25 24 25 27 28 24 23 25 28 31 32 32 35 36 34 31 27 25 26 29 32 31 32 36 37 39 39 37 39 38
4 2 1 1 3 1 3 4 1 2 6 4 2 1 5 7 8 11 13 14 11 6 5 10 11 2 2 1 6 7 5 7 7 10 12 12 11 11 11 12 13 14 14 16 18 20 22 24 26 28 29 28 28 28 26 25 25 25 24 24 26 24 21 24 27 29 29 28 29 31 31 28 24 23 22 23 28 31 32 33 33 36 39 36 35 37
0 2 1 1 2 1 3 4 1 1 5 4 1 1 5 6 9 12 13 10 9 9 4 7 8 8 6 2 9 8 5 7 7 10 11 11 11 11 11 12 14 16 16 17 20 22 24 26 27 28 29 28 29 30 29 27 27 26 23 22 24 24 21 21 25 27 26 25 26 27 28 28 25 23 24 27 30 32 32 32 32 34 37 37 35 33
2 1 1 3 2 2 4 4 0 1 4 2 2 3 5 7 11 13 12 8 8 10 6 1 6 9 8 2 9 8 5 5 9 12 13 13 13 14 13 14 17 18 18 18 20 21 24 28 29 29 30 30 30 31 30 30 28 27 25 22 22 24 23 20 21 23 22 22 23 23 24 27 28 27 28 30 32 34 33 29 30 31 31 35 38 33
1 1 1 2 2 2 3 2 1 1 2 2 3 3 5 6 10 10 10 10 7 7 7 4 5 7 6 3 3 4 3 6 11 13 14 14 14 15 15 17 19 19 19 19 20 22 24 29 32 32 33 33 33 31 31 31 30 29 28 25 22 24 25 23 21 21 21 20 21 20 20 24 28 29 31 32 31 33 33 29 30 32 31 32 36 34
1 1 1 1 2 2 1 2 2 2 1 3 4 4 5 6 8 8 7 8 6 5 8 5 2 5 6 5 4 1 3 5 9 10 12 12 13 15 17 19 20 19 18 19 20 22 27 32 34 35 35 36 35 34 33 33 32 31 31 29 27 26 27 26 23 21 21 21 19 19 21 25 28 29 33 33 31 31 31 30 30 31 31 30 33 36
1 1 1 1 1 0 3 3 2 3 1 4 4 4 6 6 6 7 6 5 4 5 6 3 3 3 6 4 1 1 3 5 8 9 11 13 15 17 18 18 19 18 17 18 19 22 30 35 36 36 36 37 38 36 35 34 34 33 32 32 31 30 29 29 27 22 19 19 19 18 20 24 26 27 29 30 30 31 32 31 29 28 31 30 32 38
1 3 2 1 0 0 3 3 2 2 3 3 2 6 7 5 4 5 4 1 3 4 5 7 2 3 7 3 3 5 5 7 8 11 13 16 18 19 19 19 19 17 18 20 19 21 26 30 33 36 36 38 38 37 36 35 34 34 34 34 33 33 32 32 31 27 21 18 17 17 16 19 24 26 25 26 27 29 30 30 33 30 29 32 34 38
1 3 1 1 0 1 2 3 3 3 1 2 3 4 5 5 4 4 4 3 6 5 7 6 4 5 10 7 4 6 6 8 10 12 13 15 17 18 19 19 17 16 19 20 18 20 22 23 29 34 36 37 37 37 37 37 36 35 35 36 35 34 35 34 33 32 27 21 18 16 15 16 22 24 24 25 26 28 29 28 31 33 28 26 32 36
2 2 1 3 2 1 3 3 3 2 2 3 2 1 2 4 6 6 6 5 7 4 6 3 5 5 11 6 7 6 7 9 12 12 10 12 15 17 19 19 17 18 19 19 19 21 20 23 30 35 37 37 37 39 40 39 39 37 37 38 37 36 36 35 34 33 32 26 20 17 15 14 18 22 23 25 26 28 31 30 29 31 31 27 27 35
3 2 2 4 3 2 2 1 1 1 2 2 2 1 3 2 4 6 5 5 8 8 5 4 2 4 6 2 10 5 7 9 10 9 8 12 15 16 17 18 18 19 19 19 20 22 23 29 36 37 38 41 42 43 42 41 40 40 39 40 40 38 37 37 35 34 32 29 22 17 15 14 15 20 22 23 25 27 30 32 32 32 32 33 30 31
4 4 2 1 2 1 3 2 1 1 2 2 3 2 3 2 4 6 3 2 5 10 9 4 4 4 1 7 10 3 8 10 10 9 11 15 16 17 17 17 17 18 19 20 21 23 26 32 38 39 41 46 46 44 43 43 42 42 42 41 41 40 39 38 37 34 33 30 24 19 16 15 15 18 21 22 24 26 28 30 31 33 33 32 36 33
3 2 4 2 1 1 1 2 1 2 1 3 3 2 1 3 1 5 4 0 2 8 8 4 5 7 1 6 6 4 11 12 10 11 14 16 19 20 18 17 18 19 21 22 23 24 26 32 38 43 45 46 47 47 47 47 44 43 42 41 42 41 39 38 37 34 32 30 26 21 19 17 16 18 20 20 23 25 27 30 30 32 34 32 35 37
1 2 4 4 2 2 1 1 2 3 2 2 3 1 5 4 2 1 2 2 4 8 7 6 9 9 6 2 2 6 13 13 13 15 17 19 21 21 19 19 21 22 24 25 25 26 29 34 40 46 49 49 49 50 49 48 46 43 40 39 40 41 39 38 36 34 31 28 25 23 21 21 19 19 21 21 22 23 25 29 30 31 34 33 33 39
1 3 3 3 2 4 0 1 3 0 2 1 1 2 3 1 2 3 1 2 6 9 7 8 10 9 7 2 2 8 13 14 15 18 20 22 22 21 21 21 23 24 24 24 25 25 28 35 42 46 48 50 52 52 49 46 42 39 37 37 39 42 41 38 36 34 30 27 25 26 27 26 24 22 23 24 23 22 23 26 29 29 32 33 31 36
0 3 1 2 1 3 2 3 4 4 2 3 1 3 2 1 2 2 1 1 5 7 7 10 10 6 2 1 4 10 12 13 16 18 19 21 22 21 21 21 23 24 22 23 25 27 29 35 44 49 48 47 50 51 47 41 36 35 39 42 44 46 44 39 35 34 33 30 28 29 29 28 27 27 26 26 25 23 23 25 26 28 30 33 31 34
1 3 2 3 1 2 4 3 2 3 4 3 4 5 3 1 2 2 2 3 4 7 6 8 10 5 2 3 6 9 10 12 16 19 18 19 21 22 22 22 23 23 23 25 26 29 31 35 42 48 48 46 45 43 40 39 39 38 39 40 41 42 42 39 36 34 35 35 32 31 30 29 28 28 28 28 27 26 26 25 25 27 28 31 31 32
2 2 2 4 4 5 2 3 2 2 3 5 6 6 5 3 3 3 5 4 3 5 5 6 12 8 0 1 3 5 9 13 16 19 19 19 22 23 23 24 25 24 25 26 27 29 29 31 38 44 46 47 44 39 39 40 40 38 36 34 35 35 36 36 36 37 37 36 36 34 33 33 30 28 30 30 28 28 27 26 26 26 27 29 31 31
1 0 3 4 4 2 2 5 3 3 4 4 3 4 4 3 4 4 5 3 2 5 5 6 12 8 1 3 1 6 11 14 17 19 20 20 22 24 24 26 27 26 26 27 28 27 26 30 37 38 38 44 44 40 39 38 36 36 35 34 34 34 34 34 35 38 38 36 35 35 34 35 33 30 30 28 27 29 28 26 26 26 26 27 30 31
2 1 3 4 2 3 3 3 2 2 3 4 4 5 5 4 4 4 5 5 5 6 5 6 10 7 4 5 3 9 13 15 16 18 21 20 20 23 26 26 27 28 28 27 27 27 29 35 37 33 33 40 42 40 41 39 38 38 36 35 35 35 36 36 35 35 36 35 35 33 32 34 34 33 31 27 25 29 29 26 26 25 26 26 27 30
2 3 3 2 3 2 2 2 2 1 2 4 4 5 6 5 3 2 5 4 5 8 8 7 8 7 2 1 8 12 14 17 17 18 20 20 20 23 24 24 26 28 28 28 30 31 32 35 35 32 35 40 40 40 40 40 39 39 37 36 36 36 35 35 35 34 33 33 35 34 32 32 33 34 34 30 27 29 29 26 26 25 25 26 26 29
2 3 3 3 6 5 4 2 2 3 4 4 5 6 7 7 7 5 4 5 6 7 7 8 9 9 8 11 14 14 15 18 19 19 20 20 21 24 24 25 25 25 26 29 30 30 28 28 30 33 37 40 39 38 38 38 39 39 38 37 35 35 35 33 33 33 32 32 32 33 34 33 32 33 36 35 31 30 30 27 25 25 23 24 27 28
0 2 5 8 9 8 7 3 4 4 4 5 6 8 8 9 10 7 4 6 7 5 7 12 12 13 15 15 16 16 17 18 18 21 22 21 23 25 25 25 25 24 25 27 27 27 27 29 30 32 36 40 39 38 38 38 38 37 37 37 36 35 34 33 32 32 32 32 31 32 33 34 34 34 34 35 34 32 31 27 24 25 23 24 27 29
1 3 6 10 12 9 7 5 1 2 6 8 8 11 10 9 10 9 8 9 7 6 9 12 10 12 15 15 17 18 17 17 19 22 24 23 24 26 25 25 27 26 25 26 27 28 28 30 32 33 36 40 39 39 40 39 38 38 36 36 36 35 34 33 32 32 32 31 31 31 32 34 36 36 34 33 31 29 30 29 25 25 25 24 27 29
2 3 4 6 9 8 6 7 6 5 8 8 9 14 14 9 10 11 12 14 11 9 13 12 13 16 16 16 18 18 16 17 21 23 24 23 24 25 25 25 27 26 25 27 28 28 28 29 31 32 34 40 41 39 40 39 37 37 36 36 37 36 35 34 33 33 32 32 32 31 31 32 34 37 36 35 32 28 28 30 28 27 27 25 27 30
2 2 2 3 6 7 7 9 10 8 9 9 11 17 15 11 12 12 12 14 14 16 18 17 18 20 16 14 16 16 16 17 20 21 22 23 23 24 25 25 26 25 26 28 28 28 29 30 31 32 32 38 41 40 40 39 37 36 36 37 38 37 38 37 35 35 34 34 35 32 32 32 32 34 35 35 34 31 29 30 30 29 29 27 28 30
3 2 2 2 4 6 8 11 10 9 10 9 12 18 16 12 14 14 12 11 12 14 16 15 17 16 10 11 14 15 16 17 19 19 20 20 22 24 25 25 26 26 25 27 28 28 29 30 33 34 32 35 42 43 41 40 39 38 37 37 38 38 39 38 37 38 37 37 37 36 35 35 33 32 34 35 34 32 32 33 32 31 30 29 30 30
4 2 2 2 4 4 6 8 8 7 8 10 14 19 18 12 11 10 8 8 9 11 13 12 12 10 8 10 14 16 18 18 18 18 17 18 21 23 24 24 24 24 24 26 28 29 31 32 33 35 34 38 42 43 42 41 39 38 38 39 39 39 40 39 39 40 40 39 39 37 36 36 35 33 33 34 33 31 32 34 34 33 32 30 30 30
4 3 2 2 3 2 5 4 3 3 5 8 11 14 15 11 10 10 8 9 11 11 10 8 8 10 11 13 15 17 19 18 17 16 16 18 20 21 22 23 22 22 22 25 28 29 29 29 33 37 39 41 42 42 43 43 40 39 39 41 42 41 41 41 41 41 41 41 40 37 36 36 35 35 34 33 32 31 30 32 33 33 32 31 31 30
4 4 2 3 2 1 4 2 2 6 7 4 3 5 6 7 9 10 9 10 11 10 9 9 11 11 11 12 14 17 18 17 15 17 18 17 16 17 20 21 22 22 23 22 25 27 26 27 36 42 43 43 44 44 44 42 41 42 42 42 41 41 40 42 42 42 41 40 38 36 35 35 35 36 35 33 32 30 28 30 32 32 30 30 30 30
6 5 2 2 3 1 1 1 4 8 4 1 3 3 3 5 9 10 10 12 12 12 12 13 12 11 10 11 12 13 16 16 16 19 20 16 13 14 16 18 20 23 24 23 24 26 28 33 40 44 44 45 45 45 44 43 42 43 43 42 41 40 40 41 41 41 40 39 38 35 34 34 33 33 33 31 31 29 27 28 29 30 29 29 30 29
6 5 3 2 2 1 1 4 6 4 4 3 7 5 2 4 7 8 10 11 10 11 11 11 11 11 11 12 10 10 15 17 16 16 16 13 13 14 14 15 18 21 23 24 25 26 31 39 43 43 45 47 46 44 44 44 43 42 41 41 41 41 40 40 39 39 39 38 37 35 32 31 31 32 31 29 29 28 26 25 26 27 28 28 29 29
6 5 3 2 3 2 3 5 4 5 6 7 7 3 4 4 5 5 8 8 6 9 8 7 9 11 11 10 9 10 14 15 13 10 10 12 17 18 17 17 18 20 23 28 31 31 35 43 45 45 45 46 45 44 43 42 43 43 43 42 41 40 38 37 36 36 36 36 35 34 31 29 30 31 30 28 27 26 25 24 24 25 26 25 26 26
6 5 4 3 2 2 2 6 5 4 6 5 5 5 4 3 3 2 6 8 5 8 5 5 8 10 9 9 10 10 11 11 10 9 11 16 19 21 20 20 23 25 28 33 37 36 39 44 46 46 46 45 43 42 41 42 44 44 42 41 40 38 36 35 35 35 35 35 36 36 33 31 30 30 29 28 26 24 24 23 23 24 24 24 24 25
6 5 4 4 4 2 3 5 6 5 4 3 8 8 6 6 6 3 5 7 5 8 6 5 8 9 7 7 9 9 7 9 10 10 14 18 19 21 20 20 24 28 31 35 36 36 40 45 47 46 44 43 42 41 41 43 44 41 38 38 38 37 35 35 36 36 37 37 37 37 35 33 31 30 28 27 25 23 24 24 22 22 22 22 23 23
8 6 6 7 8 7 6 6 4 4 5 4 7 8 8 8 7 2 5 4 6 7 5 4 5 8 5 6 8 6 5 7 10 13 17 18 19 21 21 21 22 26 30 35 37 38 43 46 45 43 41 41 42 42 43 44 42 38 37 37 37 35 34 36 38 39 40 39 38 37 35 33 31 29 27 25 24 25 25 23 20 19 19 21 22 22
7 6 6 8 9 9 10 8 5 5 7 8 8 7 10 9 6 4 5 2 4 4 3 3 4 6 4 5 6 5 6 8 11 15 17 17 18 21 24 26 27 27 28 30 33 37 41 43 43 42 40 39 40 41 41 41 39 36 36 36 34 34 36 39 40 41 40 39 38 36 35 33 31 28 26 23 23 25 24 19 16 16 18 20 21 21
6 5 6 7 7 9 10 7 4 7 9 10 9 6 9 7 5 5 3 3 2 3 2 2 5 5 4 6 6 7 10 11 13 15 16 16 17 19 22 27 29 29 30 32 35 36 37 39 42 43 42 41 40 39 38 38 37 36 35 34 34 38 40 40 40 40 40 39 38 36 34 33 29 26 24 22 20 22 22 18 15 16 19 20 20 20
7 5 5 7 6 6 7 5 3 6 7 9 9 6 7 8 5 2 0 2 3 3 2 3 5 4 4 7 7 9 12 13 13 15 14 15 17 17 20 24 25 26 29 32 35 38 38 39 40 42 44 43 41 39 38 36 35 35 34 34 38 41 41 40 40 40 39 38 36 34 32 31 28 25 22 21 21 21 21 19 17 19 20 20 19 18
6 6 4 5 5 5 6 7 6 5 5 9 9 5 7 8 3 1 2 2 3 4 2 3 4 3 3 6 8 10 12 12 13 14 14 16 16 17 19 23 25 27 30 30 33 37 38 38 39 43 45 44 41 40 38 34 34 36 36 38 41 41 40 41 41 39 37 36 34 32 30 28 27 24 21 21 21 20 18 19 20 20 19 18 18 16
7 7 3 3 4 5 5 6 6 5 4 7 6 4 5 4 1 2 4 3 2 3 3 2 4 3 3 5 7 9 9 11 13 13 14 16 17 17 19 22 25 28 30 31 34 37 38 38 39 42 45 45 43 40 36 33 34 37 38 40 42 41 41 42 41 38 36 34 32 30 27 26 27 25 21 21 20 17 16 18 18 17 17 16 16 14
4 3 0 0 3 5 5 6 7 7 7 9 7 2 3 3 1 3 4 3 2 3 3 2 4 3 2 4 6 7 8 11 13 14 14 15 16 17 18 21 25 28 30 31 33 36 39 38 37 38 41 44 44 40 36 35 36 36 39 41 41 40 41 42 40 37 35 32 29 28 26 24 24 23 21 21 21 20 19 19 18 16 16 14 14 13
4 4 3 3 5 5 5 8 10 9 8 10 7 1 1 3 3 4 4 3 2 3 2 2 3 2 3 4 5 7 10 11 12 14 14 14 16 17 17 20 24 27 29 32 34 37 38 37 36 37 40 42 42 40 39 39 37 37 40 41 41 42 42 40 37 34 32 31 29 26 24 22 20 20 19 18 19 19 19 20 19 17 15 13 12 11
5 5 4 6 9 8 6 9 8 4 3 5 6 3 3 4 5 5 3 2 3 2 2 2 2 3 3 3 4 6 9 11 12 13 14 14 14 15 16 20 24 27 29 31 34 36 35 34 35 38 38 39 40 40 41 41 40 40 41 42 44 45 42 37 34 32 32 32 28 22 20 19 19 19 18 17 17 17 17 17 18 17 16 17 15 11
3 4 4 5 8 8 9 12 9 3 3 7 9 7 5 5 7 7 5 4 4 3 3 3 4 3 3 3 3 5 9 10 10 12 15 15 13 14 17 22 25 27 28 30 33 34 33 34 37 38 38 39 39 39 41 42 42 42 42 43 46 45 40 38 37 34 31 28 23 20 19 18 18 18 17 17 18 18 18 19 19 19 19 21 22 20
3 5 5 4 5 6 9 11 7 4 5 7 8 8 6 7 9 8 7 6 5 5 5 4 4 4 4 4 3 5 8 10 10 12 14 13 13 16 20 23 25 26 26 29 31 33 33 35 37 37 38 38 37 38 40 42 43 42 43 45 47 43 40 39 36 31 28 26 24 24 25 21 18 17 16 16 17 17 18 20 22 23 23 23 24 24
7 7 7 7 7 9 10 8 5 5 6 5 4 7 7 8 9 8 8 7 7 6 6 5 5 5 4 4 4 5 7 9 12 13 13 13 15 18 20 22 24 25 26 27 28 30 33 35 35 37 38 37 36 38 40 41 41 41 43 47 48 45 41 38 32 26 26 27 27 28 28 25 22 20 18 16 16 16 16 16 18 21 24 26 25 24
Wind_Direction
323 326 339 331 359 347 335 310 291 303 293 285 295 283 285 296 290 293 300 343 10 338 332 342 338 327 310 337 83 104 93 85 78 64 55 43 37 30 25 22 16 13 7 359 357 357 356 352 349 348 347 348 349 349 346 346 346 344 343 344 346 345 345 344 342 339 333 325 318 311 306 300 289 269 250 245 244 240 236 235 236 234 230 221 217 216
274 329 11 36 9 342 324 294 279 285 268 272 289 292 295 297 302 301 295 342 6 341 323 328 338 330 314 1 100 107 90 88 76 66 58 42 38 29 22 17 11 8 360 355 355 355 356 354 351 348 347 347 348 347 347 346 345 342 341 342 344 344 344 344 342 341 337 330 322 313 306 302 297 284 264 248 244 242 237 235 237 236 231 223 218 215
327 344 72 60 58 101 38 259 261 279 275 281 296 296 297 315 324 306 266 7 352 326 316 329 336 317 320 74 104 103 99 101 87 77 62 42 38 28 19 12 5 1 355 354 353 352 353 353 351 348 344 345 345 342 343 344 343 340 338 337 338 340 342 342 341 341 337 332 327 317 308 304 299 293 283 268 253 247 241 236 236 235 232 227 221 215
311 355 83 96 138 173 197 162 249 285 272 279 310 298 303 341 342 314 309 339 323 289 306 327 321 294 289 103 105 107 114 116 101 79 58 47 41 27 19 12 4 358 352 352 350 349 349 348 349 347 344 342 339 336 337 340 340 336 334 332 331 333 338 340 340 340 337 335 333 325 318 313 305 297 292 282 267 254 244 239 236 233 231 226 220 214
276 338 74 125 125 215 287 259 258 303 294 289 334 305 319 334 327 307 313 323 314 291 333 336 317 262 152 112 117 127 123 112 86 54 42 39 34 21 13 8 2 358 354 352 349 346 345 345 346 345 342 339 335 333 332 333 334 329 326 325 325 325 331 338 340 341 339 337 334 329 326 324 316 306 298 285 273 263 250 241 235 232 231 225 220 215
268 351 15 128 95 47 314 305 320 322 301 303 112 24 322 314 313 312 317 327 320 306 54 13 328 258 137 354 146 144 114 94 64 41 36 28 22 12 4 1 357 355 355 353 352 348 344 343 344 343 341 336 332 332 330 326 325 321 319 317 318 319 324 334 339 341 340 337 334 331 328 325 319 311 302 289 280 273 261 247 236 232 232 227 220 214
254 42 8 89 72 28 340 300 241 144 291 300 86 351 309 305 313 315 319 327 309 300 11 27 309 270 296 292 150 144 117 98 57 36 31 20 16 9 2 0 357 357 356 354 352 349 344 341 340 339 337 334 330 330 328 323 318 316 314 312 313 315 317 326 335 339 339 337 334 331 329 326 322 316 307 302 296 285 271 254 240 235 233 228 220 212
144 126 76 59 41 346 308 291 68 116 273 294 61 321 306 312 313 312 314 303 287 303 315 229 240 269 295 217 153 146 126 71 32 21 16 12 10 4 2 1 358 359 357 352 347 344 342 340 337 334 333 332 329 327 326 323 318 314 311 307 307 312 315 317 324 332 333 331 331 329 329 329 327 322 314 311 308 297 282 263 245 238 232 227 221 215
134 150 86 36 352 290 288 322 57 186 230 17 24 288 280 298 301 301 300 289 292 315 301 251 224 262 279 231 169 127 92 17 14 11 7 8 4 359 359 358 359 358 354 347 341 338 337 336 334 331 329 328 327 325 323 322 319 314 312 308 303 307 314 316 315 321 323 323 325 325 329 333 331 328 325 320 316 307 290 269 251 240 231 226 221 216
69 17 73 196 252 264 120 78 52 131 145 332 310 265 263 282 291 286 279 290 305 294 282 280 221 262 280 278 280 102 86 14 5 4 4 3 358 357 357 356 355 352 346 341 336 334 333 331 329 328 326 325 325 324 321 320 318 314 311 309 306 305 309 312 308 307 312 315 318 322 331 339 338 335 332 327 322 319 307 284 262 244 232 226 219 214
41 311 242 187 243 329 120 124 80 83 348 288 285 306 310 299 289 277 274 296 300 272 254 193 122 308 293 291 295 115 85 32 5 358 359 358 356 356 354 351 348 343 339 334 331 331 329 327 326 325 325 323 321 320 317 316 315 313 310 307 306 304 302 306 306 299 298 304 307 313 325 337 343 340 335 331 325 324 321 308 288 260 236 226 222 217
130 174 185 121 78 143 142 171 164 146 276 284 352 347 328 303 274 257 262 242 248 266 191 173 114 334 276 281 104 116 76 41 13 2 359 357 354 352 347 342 340 337 334 331 330 329 327 325 325 324 323 322 319 317 315 313 311 311 308 304 303 303 301 301 303 300 292 290 294 301 313 328 340 342 336 329 324 322 322 319 313 296 255 228 220 217
173 149 39 341 254 203 183 187 182 176 290 6 31 359 322 305 307 271 271 249 254 259 161 175 347 325 267 273 145 123 58 30 14 8 1 355 349 343 339 334 333 333 330 328 327 327 326 323 323 322 321 320 319 317 314 312 310 308 306 304 301 300 300 298 298 299 295 286 284 290 300 317 330 338 337 328 323 321 319 317 318 314 291 249 221 212
197 128 240 226 163 202 219 198 211 205 46 35 58 42 287 312 322 295 292 293 278 267 162 174 342 290 267 266 152 121 40 22 13 7 356 349 340 335 334 329 330 330 326 326 325 326 326 322 322 321 320 320 319 318 316 312 311 308 304 304 301 298 297 296 292 294 294 285 278 279 287 305 320 329 333 329 323 319 318 317 314 313 310 293 249 216
235 240 193 188 162 157 172 118 345 58 68 71 108 173 244 262 282 282 302 308 300 304 271 221 202 253 283 148 147 128 33 20 11 2 347 342 334 331 331 327 329 328 323 324 324 325 326 323 322 321 321 321 319 317 315 313 312 309 304 301 301 299 297 296 292 289 289 284 274 269 274 287 304 317 323 324 323 321 319 317 315 311 311 310 290 242
246 264 108 86 303 135 128 115 77 133 157 120 115 207 242 217 240 265 306 292 287 301 289 228 204 258 305 122 140 97 18 12 7 356 342 337 332 331 329 328 330 326 324 326 325 326 326 324 323 323 322 321 318 314 312 313 312 309 305 301 300 299 297 296 293 286 285 283 274 262 265 273 286 304 312 314 318 323 321 316 315 313 308 308 306 279
241 264 102 104 302 45 101 169 179 286 235 139 160 211 96 81 223 268 293 197 243 279 275 253 270 285 284 137 139 30 5 2 357 347 337 333 333 331 329 330 331 327 326 327 326 327 326 326 325 322 318 316 316 315 313 313 312 309 306 302 300 299 297 296 293 286 281 280 273 262 261 266 273 291 301 304 308 314 320 319 314 314 311 306 309 301
278 254 155 170 160 80 339 176 123 327 312 176 207 128 97 101 125 190 292 322 288 275 271 274 283 290 294 242 153 2 354 351 345 340 335 334 335 331 329 332 331 328 327 327 328 327 326 326 324 320 316 316 318 318 316 313 311 309 307 304 302 300 298 295 293 288 280 275 270 262 261 263 267 281 292 296 300 303 312 318 315 312 312 308 307 310
330 257 193 181 147 111 143 195 136 122 344 353 317 95 112 186 168 145 152 305 289 282 281 285 287 286 284 292 26 345 344 345 338 337 334 334 334 330 329 330 328 327 326 325 328 327 326 324 321 319 317 318 319 317 315 314 312 311 313 315 314 310 305 297 292 289 282 273 266 262 264 266 267 272 284 292 294 295 300 310 314 311 311 310 306 311
266 255 220 132 120 124 179 226 197 176 118 65 98 136 121 297 195 175 157 256 267 274 281 293 301 293 242 64 357 335 342 343 335 334 331 330 330 326 327 327 325 326 323 323 326 326 325 320 318 320 320 319 320 317 315 316 316 315 315 315 314 312 310 306 300 294 287 280 269 262 262 264 266 267 274 286 289 288 293 303 310 309 309 311 306 307
176 241 224 136 141 213 194 196 204 181 153 160 185 175 165 162 162 202 231 184 229 262 268 284 292 282 128 39 345 337 342 338 332 330 326 324 324 323 325 325 323 324 322 323 326 325 324 319 317 321 322 320 319 319 319 318 315 312 310 307 304 302 302 305 307 304 296 289 280 269 263 260 263 265 267 278 284 284 290 299 307 309 308 309 305 303
186 220 208 165 194 226 208 42 355 262 217 216 212 189 175 166 162 248 251 188 181 242 234 256 275 277 5 356 335 343 334 331 330 326 322 322 323 322 324 324 322 322 323 323 321 318 321 323 321 322 323 322 320 319 318 318 315 312 311 311 310 304 298 298 303 305 301 295 287 279 273 266 261 261 265 272 278 279 286 296 304 308 307 306 306 301
73 177 225 218 213 219 4 9 337 252 199 197 204 175 167 167 166 222 258 249 243 244 221 238 265 276 121 141 58 356 335 328 328 325 323 324 324 322 321 320 319 321 322 322 319 317 319 324 324 323 323 323 322 320 318 317 315 315 316 317 317 314 310 305 302 301 300 298 292 284 280 275 268 263 263 265 270 274 281 292 301 305 305 303 305 302
100 152 210 233 215 104 55 31 39 47 137 158 165 168 185 197 177 211 258 277 283 260 237 245 263 264 135 128 21 348 331 323 325 326 325 323 322 321 319 318 322 324 322 317 319 323 324 325 327 329 326 324 322 319 317 315 314 315 315 316 315 314 314 313 309 304 300 301 300 293 287 284 278 272 267 261 264 271 277 289 299 302 304 302 302 302
173 184 171 235 258 189 154 154 129 144 201 195 197 190 200 203 168 210 250 254 263 245 228 240 262 253 178 21 333 332 324 320 323 324 323 323 321 319 319 321 325 325 319 317 322 327 327 328 330 329 326 325 323 320 318 315 313 315 315 314 314 313 312 313 313 310 306 304 306 304 297 293 289 283 277 269 264 268 274 286 296 297 301 303 299 302
222 216 180 232 261 251 254 258 152 180 207 205 205 203 209 202 184 192 222 227 243 242 223 231 255 266 284 308 315 320 323 321 322 322 322 322 318 319 324 326 325 321 316 318 324 327 325 326 328 327 325 325 323 320 320 317 313 314 316 314 313 313 312 311 312 313 312 312 311 309 304 300 297 291 285 278 270 270 273 281 293 294 298 304 299 299
130 243 226 232 245 254 274 308 95 132 214 228 225 224 215 197 194 201 201 215 242 268 256 248 256 272 287 301 310 319 325 323 322 323 323 321 320 323 328 326 319 315 316 321 324 325 324 323 324 326 326 326 325 320 318 318 315 314 315 315 314 313 312 311 310 311 312 314 315 314 311 306 302 298 292 285 278 274 275 279 290 294 296 303 300 296
151 228 231 233 245 259 286 306 86 150 248 248 250 256 240 197 182 190 205 227 252 282 266 260 271 280 286 301 312 319 324 323 324 326 323 320 322 326 327 321 313 311 317 325 326 324 324 324 325 326 326 325 325 322 319 318 316 315 314 314 313 312 310 309 308 308 308 309 310 311 311 308 306 304 301 297 290 281 280 284 289 294 296 300 298 293
206 245 230 223 246 260 281 287 272 257 260 250 248 261 257 226 197 197 214 232 241 250 255 271 292 288 289 302 310 317 324 323 324 323 318 317 322 325 321 314 311 315 322 326 325 324 324 323 323 324 324 323 322 322 322 319 316 315 313 313 312 310 309 307 306 306 304 304 303 303 306 305 303 303 302 299 296 290 289 291 293 295 295 297 297 293
205 241 211 212 254 256 249 261 262 252 251 249 250 258 259 247 237 232 234 238 240 247 255 270 282 281 287 302 306 315 320 318 320 319 315 317 321 321 316 312 314 322 328 327 323 324 322 320 321 321 322 323 321 320 321 319 316 315 312 311 310 308 308 307 305 303 301 300 299 297 300 300 298 298 297 293 290 290 293 296 297 297 294 295 296 292
229 163 126 175 259 248 227 239 251 245 243 245 254 261 259 253 252 250 244 240 242 252 260 270 277 277 288 306 308 314 315 314 318 319 315 316 318 316 314 316 322 326 327 324 321 321 319 317 320 321 320 321 320 319 319 318 316 314 311 310 307 305 306 305 302 301 299 297 296 295 295 296 294 292 292 289 285 284 288 292 293 293 292 293 294 291
223 194 113 152 255 243 197 216 244 246 246 247 254 261 257 244 244 244 230 218 227 252 269 274 277 282 302 315 313 313 314 315 319 319 316 316 315 314 317 321 324 324 323 322 321 321 319 318 319 319 318 319 320 319 318 316 314 313 311 309 306 304 303 302 299 298 295 294 295 292 290 291 291 289 288 287 283 280 282 283 284 286 287 289 291 290
194 194 160 179 256 255 152 173 239 245 257 256 246 248 244 230 234 239 227 219 225 244 266 269 274 290 309 318 316 314 316 320 322 319 316 314 311 312 321 323 320 318 318 318 319 319 317 318 319 317 316 316 317 318 318 316 311 309 309 309 307 305 303 301 299 296 292 292 292 288 285 286 287 286 285 284 281 278 277 275 276 278 280 283 287 287
184 184 183 199 240 219 147 138 271 246 251 255 173 185 205 214 234 239 235 234 233 241 254 261 275 291 304 312 313 312 313 315 317 313 305 304 308 316 324 322 316 315 315 314 318 319 317 318 319 317 315 315 315 315 316 314 310 307 308 308 307 305 303 302 300 295 290 289 288 285 284 283 281 282 283 281 278 275 269 267 268 270 274 279 283 282
176 178 181 209 225 224 152 197 263 255 250 129 140 175 196 228 241 244 248 246 238 244 257 263 275 287 296 301 303 305 306 308 310 304 294 296 313 323 323 320 316 316 316 316 320 323 321 321 319 316 315 315 315 314 313 313 311 308 308 310 309 306 303 301 300 298 295 291 287 284 282 279 277 280 282 280 277 273 264 259 262 265 269 274 275 276
164 172 178 191 204 230 211 206 230 283 337 300 263 257 185 213 237 251 264 256 232 233 250 262 276 289 296 298 300 303 305 306 302 288 281 296 325 330 324 319 317 316 316 317 319 320 320 319 317 313 312 312 312 311 311 311 311 308 306 308 310 307 304 302 300 299 299 294 289 285 282 278 279 283 283 279 276 274 266 258 257 260 264 267 270 273
157 163 168 190 206 206 226 232 254 320 311 272 254 218 146 186 229 254 277 275 228 210 230 257 278 292 298 299 305 309 306 304 298 287 294 321 333 333 327 321 318 316 314 314 315 315 317 318 315 311 310 310 308 308 309 311 313 310 306 306 308 306 305 303 301 300 300 299 296 291 285 281 283 286 284 277 272 272 269 262 258 257 258 260 265 272
172 184 184 206 228 167 205 256 267 276 270 228 183 158 127 138 160 181 282 280 222 182 196 257 278 290 302 304 309 315 313 310 306 308 327 336 334 331 328 324 321 320 317 315 316 316 318 320 316 310 308 307 306 308 312 314 316 314 310 308 309 309 307 305 303 303 303 303 301 298 292 286 286 287 283 275 270 272 273 268 258 252 252 256 262 270
198 213 207 223 247 196 198 246 238 234 261 194 167 161 130 133 144 132 298 283 183 164 189 240 275 293 308 309 309 317 323 320 310 310 327 334 330 324 322 320 318 317 315 313 314 316 318 318 315 310 309 308 307 309 315 317 317 316 312 311 312 311 309 306 306 306 305 302 300 299 296 290 287 285 280 274 271 273 273 266 255 247 249 257 263 271
201 209 211 221 233 217 215 244 246 246 268 231 182 161 142 147 146 147 286 262 155 166 200 214 270 295 297 295 302 303 299 304 302 305 316 322 318 314 313 312 313 313 313 313 315 318 319 318 315 313 312 312 310 312 317 320 320 318 315 315 314 312 310 308 307 306 304 302 300 298 296 292 288 282 275 271 272 274 271 260 247 246 255 263 267 274
195 203 210 218 228 225 224 239 256 263 259 243 225 180 149 150 158 206 250 222 145 188 205 192 266 282 267 270 287 279 276 285 287 294 305 311 310 310 311 310 310 309 310 312 313 316 319 318 314 311 310 311 312 314 317 320 320 318 318 317 315 313 312 310 307 305 304 302 300 298 296 293 289 283 274 266 266 272 272 263 251 255 265 268 269 274
182 194 215 219 221 225 229 236 265 276 255 230 216 169 146 163 209 228 213 108 135 231 222 219 267 279 264 265 269 268 280 288 289 295 303 306 307 310 311 311 312 313 315 317 318 320 321 319 315 312 310 312 313 316 320 322 319 318 319 317 314 314 313 310 307 305 303 301 298 296 294 291 290 286 276 269 266 268 271 272 269 269 270 269 270 273
176 170 207 215 201 210 224 211 217 269 246 186 159 142 170 199 223 255 214 119 158 197 229 250 261 270 273 277 279 280 287 293 296 301 304 303 306 309 309 310 311 312 316 320 321 323 323 320 317 314 312 313 316 319 323 325 322 320 319 316 314 314 312 309 307 304 301 298 296 294 292 292 293 287 274 268 269 267 269 275 275 273 271 268 268 270
187 172 196 212 178 171 201 198 201 242 221 164 154 165 199 208 201 171 237 226 170 171 200 248 256 254 261 281 290 292 296 300 302 308 310 307 309 311 311 312 313 314 317 320 321 323 323 320 317 315 314 316 319 320 323 327 327 324 318 314 314 315 313 309 307 305 301 298 296 295 293 295 298 290 270 261 264 260 260 267 268 267 268 266 263 265
204 190 199 218 182 182 210 207 209 229 202 185 204 204 184 197 206 157 199 242 239 182 173 224 264 264 253 275 286 291 296 300 305 312 312 308 309 311 312 313 313 315 318 320 321 324 323 319 317 317 315 315 319 323 326 329 329 325 319 317 318 317 314 310 307 306 303 298 296 297 296 296 299 293 273 258 259 257 254 259 261 262 264 261 256 256
216 195 236 291 210 234 250 223 214 222 202 202 231 249 159 183 199 164 188 230 232 181 176 232 269 277 264 276 287 288 292 301 307 310 311 307 306 308 312 313 314 316 320 321 323 324 323 319 317 318 316 316 320 326 328 329 329 325 321 320 320 318 315 311 308 305 302 299 298 299 297 295 297 295 280 262 257 256 255 256 257 257 256 253 249 247
223 200 194 214 220 230 230 213 213 218 204 201 217 242 140 185 177 170 194 213 178 168 194 233 260 271 255 257 277 286 294 304 308 308 310 309 307 309 314 316 317 318 321 322 323 325 324 322 320 320 320 319 322 326 328 328 329 327 324 323 323 320 317 313 308 303 302 303 302 300 298 295 293 295 291 276 264 259 257 255 254 252 249 246 242 239
212 184 183 227 234 231 237 239 231 204 176 205 213 196 185 191 177 170 176 157 143 165 195 204 222 241 243 250 274 288 294 300 304 306 308 307 306 310 316 317 317 318 320 321 323 326 325 321 320 321 321 319 321 326 329 327 327 329 330 331 328 324 319 315 312 309 308 308 305 298 296 295 292 293 294 288 278 268 261 256 252 248 245 241 236 229
163 158 166 216 233 238 253 255 245 199 194 227 224 215 205 182 169 166 160 151 161 184 196 207 222 232 247 268 292 296 291 290 296 302 303 304 306 310 314 315 317 318 319 322 324 325 323 320 320 321 320 319 322 327 328 326 325 330 334 334 331 328 324 321 319 317 317 317 313 307 305 301 294 292 293 294 290 279 270 263 255 248 246 243 239 234
176 185 179 194 224 235 240 236 222 204 228 230 216 208 194 160 154 161 167 176 192 197 192 205 225 233 250 265 279 291 286 286 296 303 300 300 306 310 313 317 318 318 321 323 323 322 322 321 321 320 319 321 324 326 326 325 326 329 334 335 333 331 327 325 324 324 326 329 329 326 323 315 305 300 296 295 294 288 282 276 265 254 248 243 240 237
203 190 186 200 224 234 233 217 183 199 237 238 182 171 167 153 155 166 177 184 189 183 181 197 211 212 226 245 254 270 277 284 299 306 303 301 305 309 313 317 319 320 322 323 324 323 323 322 322 322 323 324 325 326 326 326 327 330 334 338 338 335 330 327 327 328 331 333 333 332 331 327 324 324 319 309 302 293 286 284 275 263 253 244 239 239